Date and Time,30m Wind Direction,30m Wind Speed,30m Wind Vert,30m Quality,40m Wind Direction,40m Wind Speed,40m Wind Vert,40m Quality,50m Wind Direction,50m Wind Speed,50m Wind Vert,50m Quality,60m Wind Direction,60m Wind Speed,60m Wind Vert,60m Quality,80m Wind Direction,80m Wind Speed,80m Wind Vert,80m Quality,100m Wind Direction,100m Wind Speed,100m Wind Vert,100m Quality,120m Wind Direction,120m Wind Speed,120m Wind Vert,120m Quality,140m Wind Direction,140m Wind Speed,140m Wind Vert,140m Quality,160m Wind Direction,160m Wind Speed,160m Wind Vert,160m Quality,180m Wind Direction,180m Wind Speed,180m Wind Vert,180m Quality,200m Wind Direction,200m Wind Speed,200m Wind Vert,200m Quality,30m Wind Turbulence,40m Wind Turbulence,50m Wind Turbulence,60m Wind Turbulence,80m Wind Turbulence,100m Wind Turbulence,120m Wind Turbulence,140m Wind Turbulence,160m Wind Turbulence,180m Wind Turbulence,200m Wind Turbulence
7/12/2015 12:00 AM,192.20,0.35,-0.19,93,77.30,2.42,-0.30,96,36.10,2.23,-0.26,94,70.50,2.64,-0.57,91,151.30,0.69,-0.61,76,95.00,4.78,-2.91,51,227.40,17.18,-2.89,51,130.90,1.67,-1.78,47,200.40,4.85,-2.06,52,244.50,5.79,-1.70,59,121.90,6.48,-1.81,48,1.28,0.38,0.80,0.91,2.66,0.42,1.02,5.02,1.66,1.36,0.75
7/12/2015 12:10 AM,113.90,1.68,-0.16,94,144.20,1.18,-0.05,97,93.30,1.29,-0.13,93,231.30,2.51,-0.66,88,51.70,4.94,-2.10,42,101.10,8.52,-4.10,39,187.80,2.47,-3.50,47,352.80,4.77,-3.91,44,263.40,4.12,-4.39,46,359.30,8.49,-3.60,38,3.70,4.40,-3.40,42,0.50,0.67,0.86,0.99,0.86,0.88,10.98,0.60,2.37,1.02,0.58
7/12/2015 12:20 AM,165.90,2.80,-0.01,94,135.80,2.06,-0.12,95,153.40,1.65,-0.09,69,297.00,1.38,-0.24,60,235.00,7.46,-0.31,42,125.70,2.73,-3.04,37,197.40,6.59,-2.15,18,173.20,3.71,-3.04,21,227.00,17.43,-2.70,29,240.40,9.05,-2.39,33,181.30,3.76,-3.55,33,0.15,0.36,0.80,0.73,1.21,1.26,1.00,1.16,0.26,0.36,0.78
7/12/2015 12:30 AM,175.50,2.22,-0.06,95,76.20,2.93,-0.25,87,93.90,1.72,-0.55,60,70.10,0.88,-0.83,78,97.70,6.53,-0.83,79,336.70,5.33,-3.61,55,76.80,11.02,-2.65,57,93.00,8.03,-3.65,52,189.10,3.97,-1.99,58,49.60,7.48,-2.29,60,69.70,9.33,-2.40,54,0.49,0.46,0.89,1.19,1.05,1.31,0.41,1.85,5.04,0.69,2.31
7/12/2015 12:40 AM,130.10,0.97,-0.24,95,79.80,1.74,-0.38,93,166.70,1.54,-0.26,84,305.40,1.35,-0.50,76,311.60,3.53,-0.69,64,116.80,7.62,-1.66,27,344.50,1.98,-1.28,27,326.30,12.44,-3.22,29,122.00,13.46,1.16,21,92.70,8.47,0.22,45,69.70,9.97,-1.00,39,0.37,0.54,2.37,2.47,0.78,0.84,1.02,1.96,1.16,0.37,0.67
7/12/2015 12:50 AM,165.00,1.26,-0.29,96,8.10,1.57,-0.17,93,26.40,0.96,-0.14,91,340.00,0.10,-0.49,91,99.40,1.73,-0.68,66,106.20,15.55,-0.94,32,333.70,4.41,-2.45,34,46.10,3.28,-2.43,30,280.40,10.28,-1.54,38,180.10,7.85,-1.47,24,83.60,2.37,-2.51,22,0.40,0.43,0.52,1.14,2.03,0.31,2.82,1.17,0.87,0.84,0.76
7/12/2015 1:00 AM,188.80,1.70,-0.31,96,28.30,1.28,-0.13,85,96.80,0.77,-0.05,93,91.20,1.11,0.01,78,66.20,0.64,-0.02,58,156.70,9.07,-0.97,38,128.90,7.46,-0.44,34,145.20,1.06,0.00,32,81.20,4.72,0.81,43,175.20,4.91,-0.01,32,162.00,19.68,0.35,6,0.48,0.35,0.57,0.51,1.42,0.42,0.58,1.31,1.67,0.90,1.28
7/12/2015 1:10 AM,218.50,2.01,-0.40,96,68.80,3.56,-0.45,89,96.30,1.73,-0.07,93,134.80,1.59,-0.04,93,92.50,2.11,-0.14,87,173.40,2.53,0.10,61,181.90,5.37,0.40,38,171.30,5.21,0.23,61,226.80,4.87,0.27,33,130.60,3.90,0.80,1,111.90,13.80,2.54,2,1.97,0.19,0.36,0.64,0.74,2.54,0.47,0.69,0.40,1.82,0.36
7/12/2015 1:20 AM,209.60,2.68,-0.34,94,98.40,1.94,-0.21,91,91.80,0.60,0.14,95,190.40,1.47,-0.08,92,166.00,2.31,-0.12,81,81.10,1.93,-0.51,27,161.70,7.14,-0.31,17,180.70,3.06,-0.07,45,183.30,5.07,-0.16,35,134.50,18.51,-2.70,7,136.30,41.96,0.25,0,0.26,0.24,0.66,0.66,0.63,0.92,0.35,0.52,0.34,0.31,0.05
7/12/2015 1:30 AM,182.50,1.84,-0.16,94,98.10,2.45,-0.22,93,155.10,1.44,0.01,97,148.70,1.51,-0.01,96,110.90,1.07,-0.14,89,300.90,3.64,-1.73,42,242.50,5.03,-1.12,38,199.60,3.51,-0.13,91,193.40,2.42,-0.15,43,349.30,5.99,-2.85,3,280.40,4.43,-5.96,3,0.76,0.20,0.47,0.67,0.92,4.29,0.78,0.55,0.51,0.56,0.42
7/12/2015 1:40 AM,173.80,1.52,-0.17,95,122.90,1.56,-0.12,94,163.80,1.38,0.07,94,169.10,1.82,0.07,97,178.80,2.32,0.06,96,173.40,3.92,-0.08,91,177.80,3.23,-0.25,59,188.50,3.37,0.02,92,135.20,3.00,-0.69,46,79.80,5.27,-4.64,9,124.60,7.49,-5.09,5,0.61,0.43,0.52,0.34,0.15,0.34,1.44,0.31,0.67,2.19,0.12
7/12/2015 1:50 AM,174.30,2.25,-0.11,94,113.60,1.12,-0.21,95,114.80,1.26,-0.01,95,160.00,1.16,-0.03,95,183.10,1.90,-0.02,93,180.10,3.65,-0.07,59,162.30,4.13,0.10,21,168.30,3.73,-0.26,15,210.40,5.20,-0.32,12,276.50,18.09,-4.55,0,146.20,12.34,-4.14,2,0.61,0.38,0.39,0.73,0.50,0.24,0.22,0.31,1.06,0.10,0.23
7/12/2015 2:00 AM,168.30,2.11,-0.11,95,109.00,1.37,-0.27,94,82.00,2.89,-0.18,94,140.70,1.62,-0.06,95,143.90,2.39,-0.05,93,141.20,3.19,-0.13,75,169.10,2.81,0.00,69,193.00,2.98,0.03,77,185.80,2.68,-0.12,34,213.80,7.31,0.16,0,198.00,28.07,-0.77,0,0.50,0.25,0.21,0.33,0.39,0.33,0.38,0.31,0.65,0.37,0.00
7/12/2015 2:10 AM,164.80,1.94,-0.03,95,153.20,1.89,-0.09,95,159.30,1.98,0.01,97,157.30,2.15,0.05,97,173.90,2.79,0.07,97,182.60,3.33,0.05,97,179.20,3.76,0.04,96,190.90,3.48,0.03,94,218.10,4.44,0.08,21,197.00,12.72,-0.63,3,282.80,1.84,-1.46,5,0.53,0.39,0.44,0.39,0.30,0.08,0.16,0.06,0.16,0.09,0.32
7/12/2015 2:20 AM,193.00,3.14,-0.02,98,190.50,1.14,-0.08,95,198.40,1.60,-0.03,96,177.20,1.59,0.08,96,196.20,2.03,0.05,93,177.10,3.70,0.00,79,183.90,3.65,0.08,91,189.00,3.41,0.03,93,210.90,3.39,-0.08,47,217.60,3.87,-0.04,11,328.20,25.86,-1.23,1,0.14,0.45,0.35,0.28,0.33,0.40,0.20,0.19,0.29,0.40,0.18
7/12/2015 2:30 AM,204.20,2.58,-0.15,97,196.00,2.02,-0.20,94,191.90,1.16,-0.05,94,182.10,1.72,0.01,94,177.50,2.49,-0.13,93,113.40,6.86,-0.96,34,185.80,3.77,-0.28,72,181.90,3.59,-0.12,90,208.20,3.85,-0.15,77,203.30,5.90,-0.49,8,172.10,11.79,-2.06,11,0.19,0.86,0.69,0.76,0.56,0.39,0.92,0.37,0.51,0.40,0.37
7/12/2015 2:40 AM,211.50,2.72,-0.10,97,199.40,2.45,-0.04,96,190.70,2.49,0.03,94,182.70,2.72,0.06,94,159.10,1.52,-0.21,90,101.50,7.99,-1.60,41,186.80,9.63,-0.88,34,166.10,8.99,-3.21,20,123.50,15.91,-3.30,16,171.60,7.14,-0.80,58,205.10,8.30,-1.30,34,0.17,0.14,0.15,0.14,0.74,1.16,0.42,1.05,0.43,0.39,0.41
7/12/2015 2:50 AM,192.10,3.09,-0.03,97,183.90,3.49,0.03,97,190.40,3.55,0.03,97,189.60,3.01,0.02,95,321.60,0.60,-0.02,89,173.90,1.18,-1.58,16,3.90,23.00,-5.43,2,192.40,14.15,-1.04,0,203.70,3.26,-0.04,19,207.00,3.97,-0.01,87,217.50,3.80,-0.06,79,0.13,0.09,0.09,0.17,1.14,1.73,0.10,0.36,0.38,0.06,0.06
7/12/2015 3:00 AM,206.00,2.90,-0.08,97,198.20,3.07,-0.03,97,188.80,3.06,0.03,96,197.80,2.85,-0.03,95,148.60,0.50,-0.01,85,291.30,2.37,0.33,20,79.60,3.32,-0.07,4,145.70,5.88,-1.06,3,202.10,3.95,0.01,65,210.00,3.71,-0.02,89,216.50,3.76,-0.09,21,0.12,0.11,0.11,0.16,0.58,0.61,0.73,0.41,0.07,0.15,0.19
7/12/2015 3:10 AM,211.10,2.80,-0.14,97,196.40,2.97,-0.01,96,190.80,3.26,0.01,97,194.50,3.48,-0.02,96,194.00,1.10,0.02,91,243.30,1.16,0.06,11,110.60,6.82,0.57,1,207.10,2.85,-0.04,45,210.90,3.50,0.01,74,212.20,3.80,0.06,47,206.10,3.03,0.18,25,0.16,0.10,0.10,0.11,1.02,0.46,0.15,0.39,0.08,0.16,0.12
7/12/2015 3:20 AM,203.30,3.23,-0.09,97,194.40,3.07,0.02,95,189.70,3.36,0.04,97,194.20,3.74,0.00,95,188.40,1.00,0.00,89,186.10,0.27,-0.05,10,239.80,5.53,0.04,0,192.20,4.99,-0.15,26,209.00,3.69,-0.06,71,222.70,3.68,-0.12,51,205.50,5.94,-0.40,6,0.12,0.11,0.09,0.10,0.63,0.97,0.18,0.24,0.18,0.24,0.25
7/12/2015 3:30 AM,202.80,2.97,-0.07,96,195.20,3.23,-0.01,97,195.80,3.14,-0.02,96,200.70,3.49,-0.07,98,215.00,1.27,0.06,88,98.50,0.45,0.30,6,292.20,13.51,-1.58,1,215.20,3.60,-0.24,47,210.80,3.83,-0.20,78,210.80,4.45,-0.19,48,9.80,2.69,-0.57,5,0.13,0.11,0.13,0.12,0.68,2.49,0.59,0.36,0.25,0.28,1.04
7/12/2015 3:40 AM,196.00,3.10,-0.03,97,189.30,3.22,-0.04,97,192.00,3.16,0.02,96,197.80,3.31,0.00,97,149.90,0.51,-0.02,88,60.60,2.01,-0.59,19,328.10,10.43,-0.15,8,198.10,2.97,0.06,71,224.60,3.40,-0.16,63,214.60,4.02,-0.41,33,44.80,2.49,-1.15,5,0.13,0.25,0.27,0.14,0.80,0.32,0.60,0.58,0.49,0.69,0.57
7/12/2015 3:50 AM,200.10,2.99,-0.03,97,190.90,3.43,-0.01,95,189.00,2.94,-0.05,93,189.90,1.90,-0.09,91,220.80,0.55,0.00,68,76.20,3.44,-0.33,6,204.80,2.92,-0.04,77,207.00,3.88,-0.16,92,223.30,3.31,-0.14,67,312.20,15.04,-2.81,0,235.10,8.40,-2.17,2,0.12,0.10,0.22,0.52,0.62,0.41,0.31,0.18,0.11,0.19,0.23
7/12/2015 4:00 AM,203.50,2.48,-0.04,96,193.00,2.99,-0.03,95,191.20,2.64,-0.05,97,186.10,3.17,-0.07,95,70.00,2.15,-0.49,81,49.50,0.36,-0.58,58,221.30,2.45,-0.71,89,222.10,2.82,-0.47,90,177.20,3.08,-4.24,16,133.10,8.57,-6.14,3,97.00,7.51,-6.06,9,0.16,0.09,0.15,0.27,1.38,2.00,0.69,0.61,0.58,0.18,0.19
7/12/2015 4:10 AM,222.80,2.60,-0.17,93,205.20,2.49,-0.02,94,198.80,2.74,-0.01,94,191.30,2.25,-0.10,95,186.60,0.26,0.00,89,217.60,2.71,0.02,92,227.60,2.96,-0.03,91,242.60,2.77,-0.14,58,229.60,6.82,-0.83,14,270.30,17.82,-2.37,2,9.90,6.10,-4.67,0,0.17,0.13,0.16,0.21,0.81,0.20,0.16,0.45,0.21,0.07,0.11
7/12/2015 4:20 AM,233.40,1.89,-0.31,78,203.00,1.72,0.04,94,198.60,2.19,0.01,96,205.60,2.25,-0.07,96,209.30,2.26,-0.03,94,224.60,2.50,-0.05,94,227.40,2.62,-0.17,93,252.90,16.38,-3.04,4,202.30,19.39,-2.48,8,235.60,21.33,-1.66,6,240.00,13.61,-5.25,6,0.29,0.45,0.18,0.17,0.39,0.19,0.70,0.79,0.26,0.27,0.29
7/12/2015 4:30 AM,218.90,1.89,-0.23,93,211.70,0.90,-0.09,94,188.80,1.18,-0.08,96,206.90,1.58,-0.09,96,214.50,2.45,-0.08,96,225.90,2.62,-0.08,96,236.40,1.62,-0.11,51,241.80,3.07,-0.11,56,237.70,3.15,-0.16,3,139.40,25.95,2.24,0,38.20,27.30,-4.14,0,0.26,1.72,0.91,1.11,0.19,0.15,1.00,0.31,0.13,0.03,0.01
7/12/2015 4:40 AM,207.30,2.36,-0.14,95,190.10,2.13,0.01,94,211.40,2.10,-0.05,96,185.10,2.61,0.02,95,198.90,2.65,0.05,97,199.10,3.28,0.00,92,211.20,3.71,-0.02,71,205.60,3.23,-0.02,44,236.60,2.44,0.05,31,246.60,4.51,-0.11,25,265.40,7.38,0.15,1,0.24,0.62,0.60,0.30,0.12,0.29,0.29,0.26,0.52,0.22,0.39
7/12/2015 4:50 AM,219.00,1.53,-0.24,64,169.30,1.86,-0.07,94,203.20,2.07,-0.07,96,183.50,1.83,-0.08,97,185.30,1.49,-0.06,92,209.70,2.19,-0.02,89,214.30,2.91,-0.15,69,264.30,6.37,-0.86,3,225.20,3.31,-0.14,64,233.90,2.78,-0.11,48,231.70,10.94,0.82,0,0.40,0.40,0.37,0.56,0.72,0.73,0.41,0.94,0.22,1.75,0.07
7/12/2015 5:00 AM,220.40,1.71,-0.30,51,180.90,0.94,-0.09,93,188.90,0.44,-0.14,87,78.40,0.36,-0.06,93,207.40,1.56,0.03,78,217.80,2.34,-0.05,93,227.60,2.73,-0.04,90,231.60,2.98,-0.06,49,233.50,3.21,-0.13,25,242.90,0.98,-0.66,1,271.00,8.00,-0.82,2,0.31,1.29,1.27,2.59,0.56,0.33,0.21,0.23,0.29,0.19,0.09
7/12/2015 5:10 AM,263.90,2.35,-0.46,51,185.20,2.54,-0.02,92,180.10,1.19,-0.36,92,210.90,2.72,-0.52,92,210.00,2.63,-0.44,90,203.60,4.83,-0.41,93,202.90,5.81,-0.82,91,179.00,10.38,-2.41,57,208.20,7.24,-4.49,29,53.30,1.56,-5.99,17,80.10,6.69,-4.90,20,0.23,0.61,1.22,1.01,1.80,0.73,0.77,0.51,0.61,0.76,0.78
7/12/2015 5:20 AM,197.20,1.82,-0.28,47,177.10,2.10,-0.29,94,198.10,2.10,-0.27,94,162.90,1.31,-0.40,80,146.60,2.55,-1.10,64,195.80,2.74,-0.71,65,213.50,5.74,-1.91,44,192.90,16.85,-4.19,17,182.40,12.22,-3.68,22,130.40,8.12,-6.68,15,163.30,5.51,-5.13,14,0.37,0.68,1.04,8.97,4.22,1.07,1.06,0.44,0.65,0.78,0.44
7/12/2015 5:30 AM,210.80,2.40,-0.14,81,212.50,1.69,-0.14,93,193.40,1.16,-0.15,93,142.30,0.52,-0.12,93,186.90,1.12,0.00,93,182.40,0.94,-0.02,76,227.40,1.55,0.20,16,231.80,1.16,-0.22,18,242.10,12.14,0.75,3,213.80,35.10,-1.24,1,194.70,21.30,-2.69,0,0.19,1.18,0.69,1.55,0.85,2.06,0.17,1.38,0.13,0.12,0.09
7/12/2015 5:40 AM,226.10,1.73,-0.12,87,232.80,2.26,-0.13,92,266.60,1.77,-0.81,92,209.80,1.06,-0.75,92,202.80,5.64,-0.99,89,221.60,10.96,-2.89,40,217.10,13.72,-4.13,45,222.10,17.06,-4.07,36,221.30,12.32,-2.19,76,205.30,11.16,-5.92,23,218.40,14.82,-5.61,11,0.88,0.77,1.40,0.88,0.54,0.59,0.52,0.25,0.36,0.34,0.26
7/12/2015 5:50 AM,183.80,2.96,-0.03,93,201.70,1.19,-0.24,93,279.30,2.20,-0.69,88,42.10,1.48,-1.21,77,9.90,3.77,-2.20,57,124.70,8.77,-4.42,44,183.70,6.67,-5.71,40,96.60,9.17,-5.58,30,129.50,5.79,-5.14,29,108.10,4.70,-5.46,23,102.00,4.05,-5.95,26,0.14,1.19,1.10,0.62,1.88,0.39,1.47,0.36,1.17,0.46,3.22
7/12/2015 6:00 AM,224.50,3.22,-0.15,95,256.90,7.31,-1.23,93,280.40,15.96,-2.67,93,259.60,13.15,-3.45,90,274.90,9.93,-6.49,81,248.70,5.85,-7.84,60,248.40,4.97,-8.21,52,278.80,4.25,-8.08,52,244.90,4.21,-8.41,57,231.70,4.22,-8.36,60,253.70,5.37,-8.06,56,0.28,0.47,0.24,0.29,0.42,0.33,0.28,0.49,0.45,0.34,0.30
7/12/2015 6:30 AM,215.10,2.75,-0.02,93,224.50,2.60,-0.03,58,240.50,2.81,-0.20,17,154.90,0.61,-0.25,12,188.20,5.26,-0.72,0,94.30,22.72,-3.73,0,63.10,27.92,-2.93,0,106.70,50.59,-0.64,0,60.10,29.03,-2.83,0,111.30,26.79,-4.74,0,114.60,27.29,-4.85,0,0.14,0.58,1.46,0.33,0.25,0.10,0.00,0.03,0.03,0.01,0.00
7/12/2015 6:40 AM,281.30,8.43,-0.92,94,289.30,8.17,-1.47,94,269.50,7.81,-2.59,90,289.60,14.08,-4.27,82,296.10,11.94,-5.96,70,275.60,6.51,-7.40,50,261.50,2.99,-8.40,57,257.10,2.09,-8.40,56,306.70,1.89,-8.37,48,258.20,2.61,-8.44,61,283.50,5.40,-7.92,46,0.18,0.46,0.66,0.52,0.40,0.47,0.91,1.57,0.88,1.10,0.55
7/12/2015 6:50 AM,242.50,3.36,-0.05,95,265.40,4.24,-0.37,97,244.80,4.83,-0.56,94,232.30,4.96,-0.22,95,249.60,5.02,-0.79,94,237.10,6.89,-0.82,90,262.30,7.17,-1.93,83,273.20,8.92,-2.51,48,285.80,12.51,-4.59,46,279.30,9.02,-4.41,44,248.50,9.49,-4.25,53,0.23,0.42,0.43,0.27,0.63,0.36,0.61,0.41,0.46,0.89,0.48
7/12/2015 7:00 AM,244.00,2.48,-0.01,98,249.30,2.84,0.02,96,247.80,3.05,0.01,97,242.00,3.23,-0.06,97,236.80,4.02,-0.11,94,242.20,4.27,-0.17,90,207.40,6.71,-0.45,45,310.30,3.90,-2.97,31,241.80,6.02,-4.03,34,231.60,6.34,-4.68,7,168.90,1.95,-6.70,8,0.17,0.12,0.10,0.20,0.18,0.29,0.35,1.24,0.84,0.55,0.96
7/12/2015 7:10 AM,229.30,2.59,-0.04,97,244.30,2.63,-0.01,94,232.40,3.02,-0.02,95,238.80,2.70,-0.06,98,237.10,3.22,0.00,98,232.90,3.55,-0.03,98,231.90,3.58,-0.03,96,232.80,3.86,-0.07,90,231.90,4.26,-0.09,51,228.20,5.90,0.11,26,235.30,3.89,-0.05,32,0.19,0.13,0.12,0.11,0.11,0.08,0.07,0.06,0.09,0.13,0.05
7/12/2015 7:20 AM,232.30,2.79,-0.36,95,192.40,1.78,-0.58,96,209.10,2.59,-0.74,95,196.70,5.13,-0.97,96,239.40,2.89,-1.39,95,223.20,4.09,-1.53,94,254.10,4.76,-2.67,89,276.00,2.66,-3.12,89,265.50,6.26,-4.72,74,293.70,4.43,-6.90,65,263.40,5.61,-6.73,64,0.37,2.02,0.86,0.57,1.48,4.86,0.91,1.22,1.66,0.89,0.60
7/12/2015 7:30 AM,210.30,2.36,-0.08,94,199.20,1.94,-0.02,89,236.40,3.01,-0.28,92,264.30,1.87,-0.52,92,243.50,3.00,-0.56,93,205.60,3.12,-0.62,92,233.80,3.73,-0.72,93,218.90,3.91,-0.71,93,251.10,6.32,-1.53,79,330.40,12.53,-5.88,29,19.70,8.00,-7.63,21,0.27,0.43,0.56,3.01,0.62,0.76,0.64,0.65,0.57,0.68,0.33
7/12/2015 7:40 AM,218.50,2.72,-0.23,94,180.20,5.63,-0.83,91,142.80,2.57,-1.67,93,128.70,2.52,-1.89,93,175.20,1.32,-1.97,93,136.90,2.29,-1.92,93,173.80,3.12,-2.02,93,185.10,3.54,-1.98,92,249.20,2.95,-2.94,89,61.20,4.24,-6.41,76,85.90,1.87,-6.95,63,0.29,0.52,1.72,1.85,2.95,1.85,1.61,1.22,1.36,0.58,0.86
7/12/2015 7:50 AM,191.50,2.96,-0.29,94,162.30,3.16,-0.34,92,200.20,4.04,-0.52,94,209.80,2.96,-0.64,95,187.10,1.92,-0.54,96,184.30,3.19,-0.84,96,220.20,2.24,-1.06,95,186.70,4.63,-2.18,90,163.70,8.42,-3.17,88,158.00,4.82,-5.65,76,124.10,7.53,-5.81,70,0.25,1.14,0.67,0.72,1.22,1.27,1.68,0.74,0.42,0.60,0.45
7/12/2015 8:00 AM,198.70,3.64,-0.30,88,191.20,3.86,-0.32,91,213.50,3.37,-0.38,94,206.10,3.93,-0.42,94,197.30,5.26,-1.12,92,151.40,9.40,-4.07,61,182.70,6.31,-5.75,39,146.90,8.69,-5.68,54,191.70,9.80,-5.82,44,163.00,7.36,-5.94,59,153.60,8.66,-5.46,55,0.26,0.60,0.48,0.42,0.50,0.36,1.30,0.35,0.39,0.54,0.36
7/12/2015 8:10 AM,201.90,3.09,-0.28,92,272.10,2.73,-0.17,93,250.70,2.50,-0.09,79,256.10,2.67,-0.14,92,252.20,3.53,-0.16,90,263.20,5.65,-0.53,79,270.20,6.15,-0.49,62,275.90,7.28,-0.90,56,280.30,9.75,-1.37,53,293.00,6.89,-2.23,37,294.70,7.23,-1.02,42,0.32,0.28,0.24,0.34,0.20,0.31,0.40,0.43,0.26,0.63,0.60
7/12/2015 8:20 AM,178.60,4.13,-0.31,89,175.10,6.12,-1.36,90,165.00,9.19,-2.10,92,224.20,5.56,-2.70,90,52.50,0.12,-4.43,86,147.90,1.55,-5.83,75,136.90,2.57,-6.40,86,197.30,2.82,-6.22,74,137.80,0.46,-6.69,72,161.20,4.19,-6.29,70,297.70,1.20,-7.27,80,0.32,0.63,0.41,1.39,1.14,0.98,0.72,0.86,1.79,0.50,1.76
7/12/2015 8:30 AM,240.90,2.33,-0.21,95,265.30,3.02,-1.32,93,236.90,5.97,-2.58,90,264.70,6.44,-3.67,89,59.00,4.06,-5.89,66,235.90,3.72,-6.61,63,74.30,5.67,-6.59,60,75.80,3.63,-7.00,62,71.20,3.21,-7.25,55,79.20,4.15,-7.19,57,73.00,4.19,-7.23,50,0.39,0.98,1.64,1.06,1.28,1.15,0.53,0.94,0.90,0.50,0.55
7/12/2015 8:40 AM,222.00,2.04,-0.02,94,231.10,2.16,-0.17,96,147.60,1.18,-0.38,92,145.40,0.99,-0.43,83,161.30,8.15,-1.03,26,112.30,17.21,-3.41,7,138.20,6.43,-1.55,56,167.40,9.34,-1.45,37,127.40,16.45,-3.06,14,154.00,15.53,-2.85,20,116.70,18.61,-3.96,4,0.18,0.42,0.65,0.52,0.23,0.16,0.28,0.31,0.16,0.21,0.17
7/12/2015 8:50 AM,243.30,2.17,-0.09,96,217.60,2.55,-0.48,97,201.60,6.33,-1.44,78,285.30,3.23,-1.49,90,321.80,2.76,-4.07,78,279.50,6.93,-6.72,72,278.90,3.91,-4.59,86,228.10,4.81,-5.52,78,248.10,5.47,-6.05,59,290.80,2.79,-6.92,55,279.10,6.39,-7.08,60,0.21,0.53,0.52,0.93,1.10,0.94,0.88,0.71,1.91,0.60,0.94
7/12/2015 9:00 AM,218.30,1.77,-0.15,96,269.50,1.00,-0.24,95,281.00,0.98,-0.06,76,297.80,1.57,-0.15,86,259.50,2.20,-0.16,88,272.50,4.03,-0.27,64,274.60,4.71,-1.30,50,260.80,2.78,-0.64,47,184.90,10.19,-2.62,30,56.50,11.78,0.69,16,164.70,4.01,-3.75,22,0.34,0.56,0.43,0.51,1.15,0.74,1.29,0.48,0.64,0.70,0.44
7/12/2015 9:10 AM,182.50,3.43,-0.32,95,109.20,0.84,-0.30,94,219.40,3.97,-0.47,92,239.70,1.23,-0.41,89,230.70,4.08,-0.52,90,245.30,5.34,-0.71,87,240.20,9.63,-2.64,29,43.40,6.17,-1.14,60,145.70,3.84,-3.45,45,209.30,10.33,-3.90,27,173.90,4.11,-3.27,42,0.34,1.99,0.73,0.76,0.64,0.58,1.58,0.97,5.29,0.37,3.68
7/12/2015 9:20 AM,180.90,1.34,0.04,94,222.70,1.65,-0.20,93,280.10,1.10,-0.05,60,306.30,1.55,-0.32,90,278.20,2.62,-0.69,76,193.40,3.96,-1.44,58,100.40,11.10,-2.59,40,245.80,6.76,-2.16,50,241.30,4.49,-2.15,47,331.50,7.87,-2.30,44,351.70,2.34,-2.11,35,0.62,0.49,0.93,1.33,0.84,0.69,0.65,0.62,0.99,4.52,0.61
7/12/2015 9:30 AM,152.30,0.03,-0.04,95,354.60,1.26,-0.37,93,167.20,1.96,-0.35,78,135.40,1.44,-0.89,62,215.80,3.90,-0.56,84,274.00,6.62,-2.92,45,204.60,9.14,-1.85,52,276.20,4.52,-1.52,62,217.10,9.43,-3.10,30,201.80,4.69,-2.91,43,237.00,9.68,-2.10,42,6.22,1.09,0.75,1.78,0.87,1.13,0.57,0.67,0.89,1.53,0.66
7/12/2015 9:40 AM,176.60,1.74,-0.25,90,97.00,1.76,-0.62,88,183.80,0.48,-0.19,65,309.20,1.83,-0.44,51,283.30,8.59,-1.20,84,88.20,2.61,-2.54,65,164.60,3.98,-2.45,50,167.60,7.56,-2.15,49,308.70,4.36,-1.53,61,345.30,7.11,-2.63,48,45.60,8.90,-2.04,50,0.88,0.87,1.48,0.96,0.47,1.31,0.71,1.16,2.36,1.10,1.11
7/12/2015 9:50 AM,167.80,4.01,-0.06,96,70.30,0.94,-0.67,46,176.80,11.58,-0.84,32,214.90,1.87,-0.63,61,248.40,3.39,-1.04,87,286.90,6.77,-2.85,67,242.70,4.10,-2.48,64,332.10,11.08,-2.49,53,207.80,8.57,-1.79,52,95.70,1.90,-2.02,48,55.20,9.54,-3.20,41,0.18,1.29,0.29,1.12,1.09,1.03,1.14,0.96,0.98,3.42,0.85
7/12/2015 10:00 AM,174.50,3.07,-0.13,95,297.70,1.19,-0.21,92,335.80,1.95,-0.58,87,91.00,2.10,-0.34,75,332.50,4.94,-1.99,75,331.80,3.57,-1.87,60,69.70,6.30,-1.93,46,356.60,1.76,-1.45,72,15.70,4.24,-1.41,66,60.90,13.74,-1.94,32,117.90,3.24,-1.49,46,0.19,1.11,1.21,2.81,1.50,2.69,1.28,2.41,1.26,0.51,1.05
7/12/2015 10:10 AM,177.10,2.27,-0.21,93,292.40,2.05,-0.26,94,286.60,1.15,-0.37,95,327.60,2.23,-0.19,90,254.70,6.05,-0.67,73,254.10,8.83,-1.47,65,181.70,4.90,-1.98,74,216.00,4.62,-1.34,90,249.30,6.80,-1.42,86,312.80,0.89,-2.15,72,289.40,4.33,-2.44,68,0.36,0.61,3.55,1.21,0.61,0.98,1.23,0.79,0.72,1.32,6.73
7/12/2015 10:20 AM,198.70,1.35,-0.02,94,239.80,2.00,-0.07,96,237.30,1.58,-0.08,94,222.90,1.18,-0.03,93,221.30,4.07,-0.10,76,202.50,10.03,-0.86,46,216.10,13.44,-1.84,50,204.10,7.22,-0.76,45,164.50,1.61,-0.24,63,196.60,9.75,-1.97,36,228.20,9.59,-2.34,17,0.32,0.24,0.51,1.26,0.46,0.37,0.33,0.41,0.78,0.39,0.52
7/12/2015 10:30 AM,191.10,1.81,-0.06,90,159.40,0.51,0.03,85,189.30,1.54,0.00,93,248.60,2.00,-0.02,93,184.50,1.74,0.04,89,289.90,3.84,-0.21,57,190.90,6.33,-0.09,33,140.60,5.88,0.65,34,224.00,3.31,0.30,80,255.80,7.81,-0.08,45,262.10,7.32,-0.13,39,0.38,1.61,0.55,0.61,1.14,2.33,0.69,0.97,0.63,0.79,1.29
7/12/2015 10:40 AM,209.40,1.89,-0.07,94,203.60,1.68,-0.18,93,178.30,1.42,-0.07,94,301.20,1.24,-0.02,74,191.20,1.64,-0.13,93,157.10,0.83,-0.96,79,233.50,3.81,-0.20,63,288.60,3.23,-1.17,72,141.60,5.65,-1.02,71,288.70,0.63,-0.08,85,196.60,3.99,-0.91,87,0.33,1.10,0.74,1.11,1.46,1.63,1.20,2.08,0.95,2.91,0.63
7/12/2015 10:50 AM,192.80,1.36,-0.13,93,234.20,2.05,-0.26,95,247.70,0.01,-0.08,67,184.40,3.00,-0.32,61,250.10,1.49,-0.53,88,184.50,4.51,-0.42,88,255.20,1.82,-0.44,89,278.50,3.20,-0.36,92,215.50,2.82,-0.39,92,297.90,3.13,-0.43,90,240.60,3.31,-0.53,86,0.39,0.93,1.51,0.87,4.91,1.25,0.70,1.03,0.87,0.88,0.79
7/12/2015 11:00 AM,22.60,0.92,0.13,93,328.70,0.54,-0.19,95,349.80,2.33,-0.19,65,351.20,1.30,-0.47,93,212.20,2.61,-0.57,90,169.90,3.38,-0.03,91,301.30,1.92,-0.21,88,282.30,1.78,-0.56,92,233.20,3.63,-0.04,92,264.60,4.99,-0.59,68,221.70,1.26,-1.36,52,0.76,0.77,0.74,1.00,0.80,0.44,1.23,0.89,0.83,0.78,2.03
7/12/2015 11:10 AM,310.00,1.61,-0.06,95,303.00,1.03,-0.12,96,283.40,1.51,-0.09,96,288.10,0.58,-0.19,96,158.20,2.89,-0.68,93,183.30,3.86,-1.48,89,148.00,3.39,-1.27,88,199.40,6.07,-1.01,89,197.40,9.88,-0.88,87,217.40,6.46,-0.99,88,187.20,5.95,-2.66,57,0.27,1.03,0.48,3.01,0.79,1.81,1.39,0.64,0.33,0.43,0.49
7/12/2015 11:20 AM,292.40,1.12,0.06,95,302.20,1.89,0.11,97,304.70,1.67,0.07,97,286.50,1.71,0.05,96,240.90,2.82,-0.21,93,181.80,5.59,-0.43,92,207.20,1.98,-0.33,93,209.80,4.86,-0.20,93,203.80,4.44,-0.43,91,217.50,8.56,-1.01,87,195.10,4.79,-1.09,77,0.45,0.38,0.38,0.75,0.80,0.53,1.18,0.64,0.47,0.40,0.90
7/12/2015 11:30 AM,265.50,1.08,0.04,94,254.30,0.55,0.07,96,306.90,1.61,0.03,95,297.50,1.79,0.02,94,204.60,1.27,-0.20,84,30.30,1.76,-0.09,81,213.10,6.01,-0.48,91,208.40,3.27,-0.33,88,216.40,3.24,-0.59,67,181.90,3.23,-1.12,56,173.90,9.62,-1.08,60,0.39,5.19,0.50,0.78,1.62,4.57,0.42,0.59,1.06,1.50,0.46
7/12/2015 11:40 AM,285.20,1.33,0.07,78,277.90,1.13,0.03,94,268.70,1.25,0.03,95,242.80,1.67,0.00,93,238.80,1.41,-0.14,94,254.50,2.51,-0.31,93,287.10,3.22,-0.28,92,263.80,2.92,-0.37,91,240.30,1.34,-0.31,71,232.30,5.25,-1.19,53,276.30,3.54,-2.04,61,0.29,0.39,0.30,0.24,1.08,4.75,1.23,0.81,4.85,1.10,1.67
7/12/2015 11:50 AM,265.90,1.32,0.10,90,270.50,1.55,-0.11,96,287.80,1.43,-0.02,95,268.50,1.64,-0.09,96,237.40,2.92,-0.05,96,228.50,2.78,-0.12,96,244.70,2.44,-0.15,96,232.00,2.04,-0.16,94,167.90,1.50,-0.12,93,104.90,1.30,-0.41,89,178.60,2.88,-0.28,73,0.33,0.43,0.71,0.57,0.37,0.53,0.59,1.29,0.70,6.28,2.37
7/12/2015 12:00 PM,274.20,2.01,0.05,96,259.70,1.60,0.04,96,263.20,1.79,-0.02,97,260.20,2.63,-0.02,96,243.00,1.75,0.09,96,246.70,2.19,-0.17,96,230.80,2.73,-0.09,95,242.90,3.75,0.03,92,208.00,3.74,-0.41,89,211.80,4.07,-0.47,77,285.70,4.29,-0.76,64,0.20,0.25,0.35,0.23,0.68,0.74,0.61,0.49,0.75,0.62,0.99
7/12/2015 12:10 PM,253.70,2.08,-0.02,98,248.30,1.92,-0.01,96,227.90,2.60,-0.16,98,250.60,2.53,-0.04,98,234.60,2.68,-0.17,98,228.50,2.96,-0.23,97,233.60,1.91,-0.28,96,215.50,3.27,-0.06,93,203.70,3.44,-0.03,94,247.50,2.28,-0.30,91,207.80,3.24,0.00,88,0.21,0.22,0.30,0.33,0.40,0.60,1.05,0.60,0.73,0.79,0.72
7/12/2015 12:20 PM,252.30,2.23,-0.09,98,240.40,2.22,-0.14,96,240.00,1.96,-0.12,97,246.60,2.41,-0.15,97,255.50,2.30,-0.11,96,237.00,2.43,-0.20,95,241.90,2.43,0.03,95,239.20,3.36,-0.07,94,226.80,3.42,-0.38,92,236.10,3.47,-0.38,91,197.40,5.91,-0.51,87,0.15,0.21,0.32,0.25,0.44,0.59,0.58,0.72,0.75,0.72,0.42
7/12/2015 12:30 PM,257.20,2.01,-0.03,98,242.00,2.30,-0.03,97,248.30,1.84,-0.05,98,232.00,2.39,-0.13,98,227.70,2.01,-0.14,98,218.50,1.94,-0.19,97,230.90,2.07,-0.19,96,227.40,3.10,-0.02,96,208.60,3.59,-0.07,92,216.50,4.03,-0.21,91,200.90,7.20,-0.61,89,0.28,0.20,0.48,0.28,0.62,0.75,0.66,0.44,0.67,0.80,0.52
7/12/2015 12:40 PM,254.20,1.91,-0.01,98,234.00,1.67,0.05,98,268.60,2.43,0.01,97,246.20,2.30,0.00,97,213.30,2.29,-0.09,97,220.00,2.93,0.15,97,231.00,3.81,-0.06,95,252.20,3.95,-0.03,94,217.30,3.77,0.11,92,178.70,3.20,-0.20,91,234.50,3.84,-0.83,89,0.36,0.49,0.43,0.45,0.54,0.72,0.57,0.67,0.82,0.73,1.43
7/12/2015 12:50 PM,251.90,2.19,0.04,98,250.20,2.24,0.02,98,242.30,2.66,0.01,98,246.10,2.28,0.01,98,245.80,2.62,0.05,99,247.50,2.14,-0.02,98,247.30,2.70,0.02,97,243.90,2.78,-0.05,96,219.90,3.04,0.07,93,213.60,2.62,0.05,90,186.80,7.36,-0.29,72,0.20,0.26,0.27,0.27,0.30,0.41,0.32,0.44,0.75,0.81,0.35